Location: Keppel Henge
(44.7900°N, 80.9447°W)
Time: 09:52:03
(UTC-04:00)

Vanguard 1 - All Passes

Search period start: 21 July 2018 00:00
Search period end: 31 July 2018 00:00
Orbit: 650 x 3833 km, 34.2° (Epoch: 21 July)

Date Brightness Start Highest point End Pass type
(mag) Time Alt. Az. Time Alt. Az. Time Alt. Az.
21 Jul - 02:07:27 10° WSW 02:11:05 23° S 02:14:39 10° SE night (unlit)
21 Jul - 04:28:06 10° SW 04:30:26 13° SSW 04:33:03 10° SSE visible
21 Jul - 21:49:46 10° S 21:52:35 12° SSE 21:54:59 10° SE visible
22 Jul - 00:08:01 10° SW 00:12:29 22° S 00:16:05 10° ESE visible
22 Jul - 02:28:20 10° WSW 02:31:47 21° S 02:35:14 10° SE night (unlit)
22 Jul - 22:08:47 10° SSW 22:13:27 17° SSE 22:17:03 10° SE visible
23 Jul - 00:28:38 10° SW 00:33:13 24° S 00:36:56 10° ESE visible
23 Jul - 02:49:23 10° WSW 02:52:28 18° SSW 02:55:37 10° SSE night (unlit)
23 Jul - 22:28:40 10° SSW 22:34:17 21° SSE 22:38:24 10° ESE visible
24 Jul - 00:49:24 10° WSW 00:53:57 25° S 00:57:41 10° SE visible
24 Jul - 03:10:41 10° SW 03:13:08 14° SSW 03:15:39 10° SSE night (unlit)
24 Jul - 20:30:06 10° S 20:34:39 14° SSE 20:38:18 10° SE daylight
24 Jul - 22:48:58 10° SW 22:55:07 25° S 22:59:27 10° ESE visible
25 Jul - 01:10:18 10° WSW 01:14:40 24° S 01:18:18 10° SE visible
25 Jul - 03:32:57 10° SSW 03:33:47 10° SSW 03:34:38 10° S night (unlit)
25 Jul - 20:48:58 10° SSW 20:55:36 18° SSE 21:00:24 10° ESE daylight
25 Jul - 23:09:34 10° SW 23:15:56 28° S 23:20:20 10° ESE visible
26 Jul - 01:31:18 10° WSW 01:35:19 22° SSW 01:38:47 10° SE visible
26 Jul - 21:08:42 10° SSW 21:16:32 23° SSE 21:21:49 10° ESE daylight
26 Jul - 23:30:21 10° WSW 23:36:43 30° S 23:41:06 10° ESE visible
27 Jul - 01:52:29 10° WSW 01:55:57 18° SSW 01:59:03 10° SSE night (unlit)
27 Jul - 19:09:55 10° S 19:16:17 15° SSE 19:21:13 10° SE daylight
27 Jul - 21:28:55 10° SW 21:37:27 28° S 21:42:55 10° ESE visible
27 Jul - 23:51:16 10° WSW 23:57:27 30° S 00:01:47 10° SE visible
28 Jul - 02:13:57 10° WSW 02:16:32 14° SSW 02:18:56 10° S night (unlit)
28 Jul - 19:28:28 10° SSW 19:37:17 20° SSE 19:43:29 10° ESE daylight
28 Jul - 21:49:27 10° SW 21:58:19 32° S 22:03:51 10° ESE visible
29 Jul - 00:12:17 10° WSW 00:18:09 29° SSW 00:22:21 10° SE visible
29 Jul - 19:47:56 10° SSW 19:58:17 25° SSE 20:05:02 10° ESE daylight
29 Jul - 22:10:14 10° WSW 22:19:10 35° S 22:24:40 10° ESE visible
30 Jul - 00:33:25 10° WSW 00:38:48 25° SSW 00:42:48 10° SE visible
30 Jul - 17:49:36 10° S 17:57:21 15° SSE 18:03:27 10° ESE daylight
30 Jul - 20:07:57 10° SW 20:19:16 30° SSE 20:26:14 10° ESE daylight
30 Jul - 22:31:11 10° WSW 22:39:59 37° S 22:45:23 10° ESE visible
